Location: Street
(51.1247°N, 2.7429°W)
Time: 06:34:53
(UTC+01:00)

CAS-6 - Pass Details

Date: 28 March 2023
Orbit: 610 x 632 km, 97.9° (Epoch: 29 May)

Event Time Altitude Azimuth Distance (km) Brightness Sun altitude
Exits shadow 23:03:05 37° 6° (N) 980 ? -28.8°
Drops below altitude 10° 23:05:49 10° 352° (N) 2,006 ? -29.0°
Sets 23:08:02 0° 349° (N) 2,921 ? -29.2°
